Location: *
(46.1833°N, 22.7667°E)
Time: 03:28:54
(UTC+00:00)

Meteor 2-9 Rocket - Pass Details

Date: 17 September 2019
Orbit: 791 x 896 km, 81.3° (Epoch: 17 October)

Event Time Altitude Azimuth Distance (km) Brightness Sun altitude
Rises 17:36:09 0° 192° (SSW) 3,481 7.4 -10.9°
Reaches altitude 10° 17:38:37 10° 193° (SSW) 2,537 6.7 -11.3°
Maximum altitude 17:44:24 82° 281° (W) 885 4.4 -12.2°
Drops below altitude 10° 17:50:06 10° 9° (N) 2,491 6.8 -13.2°
Sets 17:52:30 0° 11° (N) 3,415 7.5 -13.6°
